Location: Arrington
(35.8681°N, 86.7092°W)
Time: 16:15:19
(UTC+00:00)

Cosmos 1805 Rocket - Pass Details

Date: 23 November 2019
Orbit: 606 x 630 km, 82.5° (Epoch: 09 December)

Event Time Altitude Azimuth Distance (km) Brightness Sun altitude
Rises 11:00:17 0° 173° (S) 2,853 7.2 -18.2°
Reaches altitude 10° 11:02:32 10° 168° (SSE) 1,951 6.4 -17.7°
Maximum altitude 11:06:43 50° 93° (E) 779 4.5 -16.9°
Drops below altitude 10° 11:10:54 10° 18° (NNE) 1,960 6.2 -16.1°
Sets 11:13:09 0° 13° (NNE) 2,868 7.0 -15.7°
